Location: Pardubice
(50.0330°N, 15.7830°E)
Time: 03:56:17
(UTC+01:00)

Transit 2A Rocket - Pass Details

Date: 10 October 2024
Orbit: 584 x 906 km, 66.7° (Epoch: 10 November)

Event Time Altitude Azimuth Distance (km) Brightness Sun altitude
Rises 00:09:20 0° 316° (NW) 3,508 9.0 -46.1°
Reaches altitude 10° 00:12:42 10° 334° (NNW) 2,531 8.2 -46.2°
Enters shadow 00:13:33 13° 341° (NNW) 2,332 8.0 -46.2°
